When you browse on this site, cookies collect data to enhance your experience and personalize the content and advertising you see.
Visit our Privacy Policy to learn more. By continuing to use the site, you agree to this use of cookies and data.
  • In Hungary
  • List of Countries
  • For 7 days
  • Water Temperature
  • Satellite Maps
  • Weather Map
  • News
  • Weather Widgets
  • user-avatar
    Login

    Hourly Weather Lelystad

    Today, 17 November, Saturday

    Time Temperature Precipitation Wind Pressure Humidity
    00:00 +3°C° 0 mm 4 mps 773 mmHg 84%
    01:00 +3°C° 0 mm 4 mps 773 mmHg 84%
    02:00 +1°C° 0 mm 4 mps 773 mmHg 85%
    03:00 +1°C° 0 mm 4 mps 773 mmHg 86%
    04:00 +1°C° 0 mm 4 mps 773 mmHg 86%
    05:00 +1°C° 0 mm 5 mps 773 mmHg 87%
    06:00 0°C° 0 mm 5 mps 773 mmHg 87%
    07:00 +1°C° 0 mm 5 mps 773 mmHg 84%
    08:00 +1°C° 0 mm 5 mps 774 mmHg 80%
    09:00 +2°C° 0 mm 6 mps 774 mmHg 77%
    10:00 +3°C° 0 mm 6 mps 774 mmHg 71%
    11:00 +5°C° 0 mm 6 mps 774 mmHg 66%
    12:00 +7°C° 0 mm 6 mps 774 mmHg 61%
    13:00 +7°C° 0 mm 6 mps 774 mmHg 61%
    14:00 +6°C° 0 mm 5 mps 774 mmHg 62%
    15:00 +6°C° 0 mm 5 mps 774 mmHg 63%
    16:00 +4°C° 0 mm 6 mps 774 mmHg 65%
    17:00 +3°C° 0 mm 6 mps 774 mmHg 67%
    18:00 +2°C° 0 mm 6 mps 774 mmHg 68%
    19:00 +2°C° 0 mm 6 mps 774 mmHg 69%
    20:00 +1°C° 0 mm 6 mps 774 mmHg 70%
    21:00 +1°C° 0 mm 6 mps 775 mmHg 71%
    22:00 +1°C° 0 mm 6 mps 774 mmHg 71%
    23:00 0°C° 0 mm 5 mps 774 mmHg 72%

    Tomorrow, 18 November, Sunday

    Time Temperature Precipitation Wind Pressure Humidity
    00:00 0°C° 0 mm 5 mps 774 mmHg 73%
    01:00 -1°C° 0 mm 5 mps 774 mmHg 72%
    02:00 -1°C° 0 mm 5 mps 774 mmHg 71%
    03:00 -1°C° 0 mm 5 mps 774 mmHg 70%
    04:00 -1°C° 0 mm 5 mps 774 mmHg 68%
    05:00 -2°C° 0 mm 5 mps 774 mmHg 66%
    06:00 -2°C° 0 mm 5 mps 774 mmHg 64%
    07:00 -1°C° 0 mm 5 mps 774 mmHg 60%
    08:00 -1°C° 0 mm 6 mps 774 mmHg 56%
    09:00 -1°C° 0 mm 6 mps 775 mmHg 52%
    10:00 +2°C° 0 mm 6 mps 774 mmHg 48%
    11:00 +3°C° 0 mm 6 mps 774 mmHg 44%
    12:00 +4°C° 0 mm 6 mps 774 mmHg 41%
    13:00 +5°C° 0 mm 5 mps 773 mmHg 43%
    14:00 +3°C° 0 mm 5 mps 773 mmHg 45%
    15:00 +3°C° 0 mm 5 mps 773 mmHg 47%
    16:00 +2°C° 0 mm 5 mps 773 mmHg 54%
    17:00 +2°C° 0 mm 5 mps 773 mmHg 61%
    18:00 +1°C° 0 mm 6 mps 772 mmHg 68%
    19:00 +2°C° 0 mm 6 mps 772 mmHg 72%
    20:00 +2°C° 0 mm 6 mps 772 mmHg 76%
    21:00 +2°C° 0 mm 7 mps 772 mmHg 81%
    22:00 +2°C° 0 mm 6 mps 772 mmHg 83%
    23:00 +2°C° 0 mm 6 mps 772 mmHg 85%

    Day after tomorrow, 19 November, Monday

    Time Temperature Precipitation Wind Pressure Humidity
    00:00 +2°C° 0 mm 6 mps 772 mmHg 87%
    01:00 +2°C° 0 mm 6 mps 771 mmHg 86%
    02:00 +3°C° 0 mm 6 mps 771 mmHg 85%
    03:00 +3°C° 0 mm 6 mps 771 mmHg 83%
    04:00 +3°C° 0 mm 6 mps 770 mmHg 84%
    05:00 +3°C° 0 mm 7 mps 770 mmHg 84%
    06:00 +3°C° 0 mm 7 mps 769 mmHg 85%
    07:00 +4°C° 0 mm 7 mps 769 mmHg 83%
    08:00 +4°C° 0 mm 7 mps 769 mmHg 81%
    09:00 +4°C° 0 mm 8 mps 769 mmHg 79%
    10:00 +5°C° 0 mm 8 mps 768 mmHg 74%
    11:00 +6°C° 0 mm 8 mps 768 mmHg 69%
    12:00 +6°C° 0 mm 8 mps 767 mmHg 64%
    13:00 +6°C° 0 mm 8 mps 767 mmHg 65%
    14:00 +5°C° 0 mm 8 mps 766 mmHg 66%
    15:00 +5°C° 0 mm 7 mps 766 mmHg 67%
    16:00 +4°C° 0 mm 7 mps 766 mmHg 70%
    17:00 +4°C° 0 mm 8 mps 765 mmHg 73%
    18:00 +2°C° 0 mm 8 mps 765 mmHg 76%
    19:00 +2°C° 0 mm 8 mps 765 mmHg 77%
    20:00 +1°C° 0 mm 8 mps 765 mmHg 78%
    21:00 +2°C° 0 mm 7 mps 765 mmHg 79%
    22:00 0°C° 0 mm 7 mps 765 mmHg 80%
    23:00 0°C° 0 mm 8 mps 764 mmHg 80%

    20 November, Tuesday

    Time Temperature Precipitation Wind Pressure Humidity
    00:00 0°C° 0 mm 8 mps 764 mmHg 81%
    01:00 0°C° 0 mm 8 mps 763 mmHg 79%
    02:00 0°C° 0 mm 8 mps 763 mmHg 78%
    03:00 0°C° 0 mm 8 mps 762 mmHg 76%
    04:00 0°C° 0 mm 9 mps 762 mmHg 75%
    05:00 0°C° 0 mm 9 mps 762 mmHg 75%
    06:00 0°C° 0 mm 9 mps 761 mmHg 74%
    07:00 0°C° 0 mm 9 mps 761 mmHg 72%
    08:00 0°C° 0 mm 10 mps 761 mmHg 70%
    09:00 0°C° 0 mm 10 mps 760 mmHg 68%
    10:00 0°C° 0 mm 10 mps 760 mmHg 66%
    11:00 0°C° 0 mm 9 mps 759 mmHg 65%
    12:00 +1°C° 0 mm 9 mps 759 mmHg 64%
    13:00 0°C° 0 mm 9 mps 758 mmHg 64%
    14:00 0°C° 0 mm 9 mps 758 mmHg 65%
    15:00 0°C° 0 mm 9 mps 758 mmHg 66%
    16:00 0°C° 0 mm 9 mps 757 mmHg 67%
    17:00 0°C° 0 mm 9 mps 757 mmHg 68%
    18:00 0°C° 0 mm 9 mps 757 mmHg 69%
    19:00 -1°C° 0.5 mm 9 mps 757 mmHg 72%
    20:00 -1°C° 0.5 mm 9 mps 757 mmHg 75%
    21:00 -1°C° 0.5 mm 9 mps 757 mmHg 78%
    22:00 -1°C° 0.6 mm 9 mps 756 mmHg 80%
    23:00 -1°C° 0.6 mm 9 mps 756 mmHg 82%

    21 November, Wednesday

    Time Temperature Precipitation Wind Pressure Humidity
    00:00 -3°C° 0.6 mm 9 mps 756 mmHg 84%
    01:00 -3°C° 0.4 mm 9 mps 755 mmHg 85%
    02:00 -3°C° 0.4 mm 9 mps 755 mmHg 87%
    03:00 -3°C° 0.4 mm 9 mps 755 mmHg 89%
    04:00 -2°C° 0.3 mm 8 mps 755 mmHg 90%
    05:00 -2°C° 0.3 mm 8 mps 754 mmHg 90%
    06:00 -2°C° 0.3 mm 8 mps 754 mmHg 91%
    07:00 -2°C° 0.5 mm 8 mps 755 mmHg 92%
    08:00 -2°C° 0.5 mm 8 mps 755 mmHg 93%
    09:00 -1°C° 0.5 mm 7 mps 755 mmHg 94%
    10:00 -1°C° 0.2 mm 7 mps 755 mmHg 95%
    11:00 -1°C° 0.2 mm 7 mps 755 mmHg 96%
    12:00 +1°C° 0.2 mm 6 mps 756 mmHg 96%
    13:00 +1°C° 0 mm 6 mps 756 mmHg 95%
    14:00 +1°C° 0 mm 5 mps 757 mmHg 94%
    15:00 +1°C° 0 mm 5 mps 757 mmHg 93%
    16:00 0°C° 0 mm 5 mps 758 mmHg 92%
    17:00 0°C° 0 mm 5 mps 759 mmHg 91%
    18:00 0°C° 0 mm 5 mps 760 mmHg 90%
    19:00 -1°C° 0 mm 5 mps 760 mmHg 90%
    20:00 -1°C° 0 mm 5 mps 761 mmHg 90%
    21:00 -2°C° 0 mm 5 mps 762 mmHg 90%
    22:00 -2°C° 0 mm 4 mps 762 mmHg 90%
    23:00 -2°C° 0 mm 4 mps 763 mmHg 90%

    22 November, Thursday

    Time Temperature Precipitation Wind Pressure Humidity
    00:00 -2°C° 0 mm 4 mps 763 mmHg 90%
    01:00 -2°C° 0 mm 4 mps 763 mmHg 91%
    02:00 -2°C° 0 mm 4 mps 764 mmHg 91%
    03:00 -3°C° 0 mm 4 mps 764 mmHg 91%
    04:00 -3°C° 0 mm 4 mps 764 mmHg 91%
    05:00 -3°C° 0 mm 4 mps 765 mmHg 91%
    06:00 -3°C° 0 mm 4 mps 765 mmHg 91%
    07:00 -2°C° 0 mm 4 mps 765 mmHg 90%
    08:00 -1°C° 0 mm 4 mps 766 mmHg 89%
    09:00 -1°C° 0 mm 4 mps 766 mmHg 89%
    10:00 0°C° 0 mm 4 mps 766 mmHg 88%
    11:00 +1°C° 0 mm 4 mps 766 mmHg 88%
    12:00 +3°C° 0 mm 4 mps 766 mmHg 87%
    13:00 +1°C° 0 mm 4 mps 766 mmHg 89%
    14:00 +1°C° 0 mm 4 mps 766 mmHg 91%
    15:00 0°C° 0 mm 4 mps 766 mmHg 93%
    16:00 0°C° 0 mm 4 mps 766 mmHg 94%
    17:00 0°C° 0 mm 5 mps 766 mmHg 94%
    18:00 -1°C° 0 mm 5 mps 766 mmHg 95%
    19:00 -1°C° 0 mm 5 mps 767 mmHg 95%
    20:00 -1°C° 0 mm 4 mps 767 mmHg 95%
    21:00 -1°C° 0 mm 4 mps 767 mmHg 96%
    22:00 -1°C° 0 mm 4 mps 767 mmHg 96%
    23:00 -2°C° 0 mm 4 mps 767 mmHg 96%
    Show more